Regional Weather Roundup
Issued by NWS Albany, NY

Current Version | Previous Version | Graphics & Text | Print | Product List | Glossary Off
Versions: 1 2 3 4 5 6 7 8 9 10 11 12 13 14 15 16 17 18 19 20 21 22 23 24 25 26 27 28 29 30 31 32 33 34 35 36 37 38 39 40 41 42 43 44 45 46 47 48 49 50

655
ASUS41 KALY 251110
RWRALY

NEW YORK STATE HOURLY WEATHER ROUNDUP
NATIONAL WEATHER SERVICE ALBANY NY
700 AM EDT MON SEP 25 2017

NOTE: "FAIR" INDICATES FEW OR NO CLOUDS BELOW 12,000 FEET WITH NO
SIGNIFICANT WEATHER AND/OR NO OBSTRUCTIONS TO VISIBILITY.

NYZ032-033-038>043-046>054-057>066-NYZ062>081-082-084-251200-
EAST


CITY           SKY/WX    TMP DP  RH WIND       PRES   REMARKS
ALBANY         PTCLDY    65  63  93 CALM      30.09R
GLENS FALLS    FOG       59  59 100 CALM      30.09R VSB 1/4
POUGHKEEPSIE   PTCLDY    62  60  93 CALM      30.06R
NEWBURGH       CLEAR     66  66 100 CALM      30.08R
MONTGOMERY     PTCLDY    60  60 100 CALM      30.07R FOG
WHITE PLAINS   CLEAR     68  65  90 CALM      30.06R
ISLIP          CLEAR     65  62  90 CALM      30.05R
NEW YORK CITY  PTCLDY    73  66  78 NE6       30.04R
CENTRAL PARK   CLEAR     72  66  81 NE3       30.07R
$$

NYZ005>009-017-018-044>046-055-056-251200-
CENTRAL


CITY           SKY/WX    TMP DP  RH WIND       PRES   REMARKS
FULTON         FOG       63  62  97 CALM      30.10R VSB 3/4
SYRACUSE       CLEAR     62  62 100 E3        30.09R FOG
ROME           CLEAR     61  61 100 CALM      30.11R FOG
ELMIRA         FOG       64  64 100 SW3       30.12R VSB 1/4
BINGHAMTON     CLEAR     64  63  96 NE5       30.14R FOG
MONTICELLO     CLEAR     64  62  93 NW3       30.13R
$$

NYZ026>034-041>043-087-251200-
NORTH


CITY           SKY/WX    TMP DP  RH WIND       PRES   REMARKS
WATERTOWN      PTCLDY    58  58 100 E3        30.09R FOG
FORT DRUM      NOT AVBL
OGDENSBURG       N/A     61  60  97 CALM      30.08S FOG
MASSENA        FOG       60  60 100 CALM      30.09S VSB 3/4
SARANAC LAKE   FOG       51  51 100 CALM      30.15S VSB 1/4
PLATTSBURGH    CLEAR     61  59  93 CALM      30.08S FOG
$$

NYZ001>004-010>016-019>021-085-251200-
WEST


CITY           SKY/WX    TMP DP  RH WIND       PRES   REMARKS
NIAGARA FALLS  PTCLDY    65  61  87 CALM      30.09S FOG
BUFFALO        PTCLDY    65  64  97 S5        30.10R
DUNKIRK        PTCLDY    62  61  96 CALM      30.10R
JAMESTOWN      FOG       66  63  88 CALM      30.16R VSB 1
WELLSVILLE     FOG       61  59  93 CALM      30.19R VSB<1/4
ROCHESTER      PTCLDY    65  65 100 SW3       30.10S
PENN YAN       CLEAR     64  62  93 SW5       30.12S FOG
$$

             KEY
       WCI = WIND CHILL INDEX
       VSB = VISIBILITY
       HX  = HEAT INDEX
$$




USA.gov is the U.S. government's official web portal to all federal, state and local government web resources and services.